contact:dominique.lefevre@mio.osupytheas.fr, maurice.libes@osupytheas.fr, didier.mallarino@osupytheas.fr
Project:EMSO http://www.emso-fr.org/EMSO-France
Depth: 2436.0 m
Title:EMSO Ligure Ouest : Data MII capteur AQUADOPP
Date,Latitude,Longitude,X_East,Y_North,Z_Up,Amplitude_X,Amplitude_Y,Amplitude_Z,Batterie,SoundSpeed,Heading,Pitch,Roll,Pressure,TIS,Speed,Direction
, degrees North, degrees East, m.s-1, m.s-1,m.s-1, 1, 1, 1, Volt, m.s-1, degree, degree, degree, dbar, degree_C, m.s-1, degree
2023-12-21T00:04:02,42.805,6.029,0.01,-0.034,-0.011,106.0,106.0,103.0,13.3,1505.2,356.4,-0.8,1.8,2471.498,13.28,0.035,163.6
2023-12-21T00:07:03,42.805,6.029,0.023,-0.007,0.013,106.0,106.0,103.0,13.4,1505.2,340.7,-0.8,1.8,2471.455,13.29,0.024,106.9
2023-12-21T00:10:03,42.805,6.029,0.015,-0.029,-0.016,106.0,106.0,103.0,13.3,1505.2,355.7,-0.8,1.8,2471.472,13.29,0.032,152.6
2023-12-21T00:13:03,42.805,6.029,0.035,-0.027,-0.01,106.0,106.0,103.0,13.4,1505.2,4.0,-0.8,1.8,2471.451,13.29,0.044,127.7
2023-12-21T00:16:03,42.805,6.029,0.028,0.002,-0.027,105.0,106.0,103.0,13.4,1505.2,340.1,-0.8,1.8,2471.462,13.29,0.028,85.9
2023-12-21T00:19:03,42.805,6.029,0.01,-0.03,-0.005,106.0,105.0,103.0,13.3,1505.2,346.5,-0.8,1.8,2471.484,13.29,0.031,161.6
2023-12-21T00:22:02,42.805,6.029,0.028,-0.027,0.0,105.0,104.0,104.0,13.4,1505.2,355.7,-0.8,1.8,2471.455,13.29,0.038,134.0
2023-12-21T00:25:03,42.805,6.029,0.018,-0.033,-0.002,106.0,105.0,102.0,13.3,1505.2,3.9,-0.8,1.8,2471.463,13.29,0.037,151.4
2023-12-21T00:28:03,42.805,6.029,0.0,-0.029,-0.011,106.0,105.0,103.0,13.4,1505.2,0.0,-0.8,1.8,2471.455,13.29,0.028,180.0
2023-12-21T00:31:03,42.805,6.029,0.024,-0.035,-0.006,105.0,106.0,104.0,13.4,1505.2,350.2,-0.8,1.8,2471.449,13.29,0.042,145.6
2023-12-21T00:34:03,42.805,6.029,0.038,-0.016,-0.001,108.0,104.0,104.0,13.4,1505.2,346.1,-0.8,1.8,2471.423,13.29,0.041,112.8
2023-12-21T00:37:03,42.805,6.029,0.008,-0.037,-0.017,106.0,105.0,103.0,13.4,1505.2,352.8,-0.8,1.8,2471.457,13.29,0.037,167.8
2023-12-21T00:40:03,42.805,6.029,0.019,0.01,0.0,106.0,106.0,103.0,13.4,1505.2,348.8,-0.8,1.8,2471.435,13.29,0.021,62.2
2023-12-21T00:43:03,42.805,6.029,0.022,-0.038,-0.006,107.0,105.0,104.0,13.4,1505.2,356.4,-0.8,1.8,2471.44,13.29,0.043,149.9
2023-12-21T00:46:03,42.805,6.029,0.003,-0.011,-0.021,106.0,105.0,104.0,13.3,1505.2,342.8,-0.8,1.8,2471.428,13.29,0.011,164.7
2023-12-21T00:49:03,42.805,6.029,-0.009,-0.02,0.0,105.0,105.0,104.0,13.4,1505.2,355.3,-0.8,1.8,2471.46,13.29,0.021,204.2
2023-12-21T00:52:03,42.805,6.029,0.008,-0.028,-0.033,106.0,104.0,103.0,13.4,1505.2,351.5,-0.8,1.8,2471.428,13.29,0.029,164.1
2023-12-21T00:55:03,42.805,6.029,0.016,-0.028,-0.022,105.0,105.0,102.0,13.4,1505.2,0.7,-0.8,1.8,2471.448,13.29,0.032,150.3
2023-12-21T00:58:03,42.805,6.029,0.013,-0.009,-0.025,106.0,104.0,103.0,13.4,1505.2,352.9,-0.8,1.8,2471.416,13.29,0.015,124.7
2023-12-21T01:04:02,42.805,6.029,0.045,-0.029,-0.021,107.0,107.0,105.0,13.4,1505.2,341.3,-0.8,1.8,2471.507,13.28,0.053,122.8
2023-12-21T01:07:03,42.805,6.029,0.019,-0.015,-0.004,106.0,105.0,103.0,13.4,1505.2,355.7,-0.8,1.8,2471.493,13.29,0.024,128.3
2023-12-21T01:10:03,42.805,6.029,0.023,-0.023,0.001,104.0,105.0,103.0,13.3,1505.2,358.5,-0.8,1.9,2471.463,13.29,0.032,135.0
2023-12-21T01:13:03,42.805,6.029,0.03,-0.025,0.003,105.0,107.0,104.0,13.4,1505.2,340.8,-0.7,1.8,2471.461,13.29,0.039,129.8
2023-12-21T01:16:03,42.805,6.029,0.0,-0.027,-0.02,107.0,105.0,103.0,13.4,1505.2,358.3,-0.8,1.8,2471.484,13.29,0.026,180.0
2023-12-21T01:19:03,42.805,6.029,0.002,-0.027,-0.01,106.0,106.0,103.0,13.4,1505.2,0.8,-0.7,1.8,2471.483,13.29,0.027,175.8
2023-12-21T01:22:02,42.805,6.029,0.013,-0.031,0.009,106.0,106.0,104.0,13.4,1505.2,346.6,-0.8,1.8,2471.45,13.29,0.033,157.3
2023-12-21T01:25:03,42.805,6.029,0.031,-0.024,0.038,106.0,105.0,104.0,13.3,1505.2,345.9,-0.7,1.8,2471.455,13.29,0.039,127.7
2023-12-21T01:28:03,42.805,6.029,0.01,-0.021,-0.02,107.0,106.0,103.0,13.3,1505.2,349.4,-0.7,1.8,2471.434,13.29,0.023,154.5
2023-12-21T01:31:03,42.805,6.029,0.002,-0.027,0.007,105.0,106.0,104.0,13.3,1505.2,354.9,-0.7,1.8,2471.447,13.29,0.027,175.8
2023-12-21T01:34:03,42.805,6.029,0.02,-0.004,-0.015,106.0,105.0,104.0,13.4,1505.2,341.3,-0.8,1.8,2471.423,13.29,0.02,101.3
2023-12-21T01:37:03,42.805,6.029,-0.008,-0.027,0.001,107.0,107.0,103.0,13.3,1505.2,352.7,-0.8,1.8,2471.457,13.29,0.028,196.5
2023-12-21T01:40:03,42.805,6.029,0.004,-0.038,-0.02,105.0,105.0,105.0,13.3,1505.2,356.0,-0.8,1.8,2471.441,13.29,0.038,174.0
2023-12-21T01:43:03,42.805,6.029,-0.002,-0.005,-0.055,107.0,106.0,104.0,13.4,1505.2,359.1,-0.8,1.8,2471.449,13.29,0.005,201.8
2023-12-21T01:46:03,42.805,6.029,0.012,-0.027,-0.014,107.0,106.0,104.0,13.4,1505.2,339.8,-0.7,1.8,2471.441,13.29,0.029,156.0
2023-12-21T01:49:03,42.805,6.029,0.011,-0.028,-0.019,107.0,106.0,104.0,13.3,1505.2,356.6,-0.7,1.8,2471.447,13.29,0.03,158.6
2023-12-21T01:52:03,42.805,6.029,0.027,-0.017,0.016,106.0,106.0,104.0,13.4,1505.2,358.2,-0.8,1.8,2471.455,13.29,0.031,122.2
2023-12-21T01:55:03,42.805,6.029,0.002,-0.022,-0.006,109.0,106.0,103.0,13.4,1505.2,341.0,-0.8,1.8,2471.453,13.29,0.022,174.8
2023-12-21T01:58:03,42.805,6.029,0.013,-0.024,-0.015,106.0,106.0,104.0,13.3,1505.2,352.3,-0.8,1.8,2471.429,13.29,0.027,151.6
2023-12-21T02:04:02,42.805,6.029,0.002,-0.033,-0.007,107.0,106.0,105.0,13.3,1505.2,344.1,-0.8,1.8,2471.519,13.28,0.033,176.5
2023-12-21T02:07:03,42.805,6.029,0.02,-0.037,0.008,106.0,106.0,104.0,13.4,1505.2,348.6,-0.8,1.8,2471.499,13.29,0.042,151.6
2023-12-21T02:10:03,42.805,6.029,0.007,-0.059,-0.001,107.0,107.0,103.0,13.4,1505.2,0.7,-0.7,1.8,2471.494,13.29,0.059,173.2
2023-12-21T02:13:03,42.805,6.029,0.005,-0.023,0.009,107.0,106.0,103.0,13.4,1505.2,356.7,-0.8,1.8,2471.46,13.29,0.023,167.7
2023-12-21T02:16:03,42.805,6.029,0.006,-0.04,-0.029,107.0,105.0,104.0,13.4,1505.2,353.8,-0.8,1.8,2471.456,13.29,0.04,171.5
2023-12-21T02:19:05,42.805,6.029,0.002,-0.021,-0.031,106.0,108.0,103.0,13.4,1505.2,0.8,-0.7,1.8,2471.484,13.29,0.021,174.6
2023-12-21T02:22:02,42.805,6.029,0.012,-0.053,0.002,105.0,107.0,103.0,13.3,1505.2,339.4,-0.8,1.8,2471.477,13.29,0.054,167.2
2023-12-21T02:25:03,42.805,6.029,0.0,-0.022,-0.032,108.0,105.0,104.0,13.4,1505.2,349.4,-0.8,1.8,2471.455,13.29,0.022,180.0
2023-12-21T02:28:03,42.805,6.029,-0.015,-0.037,-0.028,106.0,106.0,103.0,13.4,1505.2,3.2,-0.8,1.8,2471.437,13.29,0.039,202.1
2023-12-21T02:31:03,42.805,6.029,0.021,-0.028,-0.007,107.0,107.0,104.0,13.4,1505.2,340.2,-0.8,1.8,2471.473,13.29,0.035,143.1
2023-12-21T02:34:03,42.805,6.029,0.006,-0.036,-0.019,107.0,106.0,104.0,13.3,1505.2,356.5,-0.7,1.8,2471.452,13.29,0.036,170.5
2023-12-21T02:37:03,42.805,6.029,0.0,-0.032,-0.006,108.0,106.0,104.0,13.4,1505.2,3.0,-0.8,1.8,2471.46,13.29,0.032,180.0
2023-12-21T02:40:03,42.805,6.029,0.0,-0.032,0.0,107.0,105.0,103.0,13.3,1505.2,348.2,-0.8,1.8,2471.44,13.29,0.032,180.0
2023-12-21T02:43:03,42.805,6.029,0.012,-0.026,-0.04,107.0,105.0,105.0,13.4,1505.2,342.3,-0.8,1.8,2471.438,13.29,0.028,155.2
2023-12-21T02:46:03,42.805,6.029,0.013,-0.057,-0.016,107.0,107.0,105.0,13.4,1505.2,339.0,-0.8,1.8,2471.406,13.29,0.058,167.2
2023-12-21T02:49:03,42.805,6.029,0.004,-0.038,-0.02,107.0,106.0,104.0,13.4,1505.2,348.5,-0.8,1.8,2471.443,13.29,0.038,174.0
2023-12-21T02:52:02,42.805,6.029,-0.011,-0.04,-0.033,107.0,107.0,104.0,13.3,1505.2,355.7,-0.7,1.8,2471.443,13.29,0.041,195.4
2023-12-21T02:55:03,42.805,6.029,0.0,-0.026,-0.023,108.0,106.0,104.0,13.4,1505.2,340.4,-0.7,1.8,2471.476,13.29,0.026,180.0
2023-12-21T02:58:03,42.805,6.029,0.004,-0.028,-0.012,107.0,107.0,104.0,13.4,1505.2,358.3,-0.8,1.8,2471.453,13.29,0.028,171.9
2023-12-21T03:04:02,42.805,6.029,0.011,-0.039,-0.018,107.0,107.0,104.0,13.3,1505.2,348.6,-0.8,1.8,2471.507,13.28,0.04,164.3
2023-12-21T03:07:03,42.805,6.029,-0.009,-0.049,-0.061,107.0,106.0,104.0,13.3,1505.2,2.4,-0.8,1.8,2471.462,13.28,0.049,190.4
2023-12-21T03:10:03,42.805,6.029,-0.011,-0.027,-0.033,107.0,106.0,104.0,13.3,1505.2,352.6,-0.8,1.8,2471.504,13.29,0.029,202.2
2023-12-21T03:13:03,42.805,6.029,0.015,-0.046,-0.036,107.0,106.0,104.0,13.4,1505.2,340.0,-0.8,1.8,2471.488,13.29,0.048,161.9
2023-12-21T03:16:03,42.805,6.029,0.002,-0.048,-0.028,107.0,108.0,105.0,13.4,1505.2,348.3,-0.8,1.8,2471.46,13.29,0.048,177.6
2023-12-21T03:19:03,42.805,6.029,-0.003,-0.039,-0.018,106.0,106.0,104.0,13.4,1505.2,4.0,-0.7,1.8,2471.435,13.29,0.039,184.4
2023-12-21T03:22:02,42.805,6.029,0.002,0.002,-0.001,107.0,106.0,105.0,13.4,1505.2,343.1,-0.8,1.8,2471.436,13.29,0.002,45.0
2023-12-21T03:25:03,42.805,6.029,-0.016,-0.009,-0.025,108.0,106.0,105.0,13.3,1505.2,355.6,-0.8,1.8,2471.476,13.29,0.018,240.6
2023-12-21T03:28:03,42.805,6.029,-0.012,-0.046,-0.004,107.0,105.0,104.0,13.4,1505.2,340.8,-0.7,1.8,2471.445,13.29,0.047,194.6
2023-12-21T03:31:03,42.805,6.029,0.0,-0.036,-0.039,107.0,107.0,103.0,13.4,1505.2,350.6,-0.8,1.8,2471.484,13.29,0.036,180.0
2023-12-21T03:34:03,42.805,6.029,-0.015,-0.058,-0.028,106.0,106.0,103.0,13.4,1505.2,2.5,-0.8,1.8,2471.442,13.29,0.059,194.5
2023-12-21T03:37:03,42.805,6.029,0.016,-0.047,-0.02,106.0,106.0,104.0,13.4,1505.2,350.5,-0.7,1.8,2471.462,13.29,0.049,161.2
2023-12-21T03:40:03,42.805,6.029,0.01,-0.023,0.013,108.0,106.0,103.0,13.3,1505.2,342.8,-0.8,1.7,2471.428,13.29,0.025,156.5
2023-12-21T03:43:03,42.805,6.029,0.006,-0.033,-0.022,106.0,105.0,104.0,13.3,1505.2,347.6,-0.8,1.8,2471.464,13.29,0.033,169.7
2023-12-21T03:46:03,42.805,6.029,0.0,-0.009,-0.002,107.0,104.0,104.0,13.4,1505.2,349.6,-0.7,1.8,2471.465,13.29,0.009,180.0
2023-12-21T03:49:03,42.805,6.029,0.004,-0.016,-0.048,106.0,106.0,104.0,13.4,1505.2,343.3,-0.8,1.8,2471.428,13.29,0.016,166.0
2023-12-21T03:52:03,42.805,6.029,0.0,-0.018,-0.004,107.0,105.0,103.0,13.3,1505.2,349.3,-0.8,1.8,2471.45,13.29,0.018,180.0
2023-12-21T03:55:03,42.805,6.029,0.007,-0.019,-0.039,106.0,106.0,104.0,13.4,1505.2,348.8,-0.8,1.8,2471.463,13.29,0.02,159.8
2023-12-21T03:58:03,42.805,6.029,-0.009,-0.039,-0.003,107.0,106.0,104.0,13.4,1505.2,348.2,-0.7,1.8,2471.426,13.29,0.04,193.0
2023-12-21T05:04:03,42.805,6.029,-0.009,-0.018,-0.009,106.0,106.0,104.0,13.4,1505.2,348.9,-0.8,1.8,2471.96,13.28,0.02,206.6
2023-12-21T05:07:03,42.805,6.029,-0.01,-0.008,-0.009,106.0,106.0,103.0,13.4,1505.2,1.6,-0.8,1.8,2471.869,13.28,0.012,231.3
2023-12-21T05:10:03,42.805,6.029,-0.013,-0.016,-0.041,108.0,105.0,103.0,13.4,1505.2,340.3,-0.8,1.8,2471.775,13.28,0.02,219.1
2023-12-21T05:13:03,42.805,6.029,-0.031,-0.002,-0.049,107.0,106.0,103.0,13.3,1505.2,353.0,-0.8,1.8,2471.724,13.28,0.031,266.3
2023-12-21T05:16:03,42.805,6.029,-0.023,-0.032,-0.002,107.0,106.0,103.0,13.4,1505.2,356.9,-0.8,1.8,2471.628,13.29,0.039,215.7
2023-12-21T05:19:03,42.805,6.029,-0.009,-0.009,-0.039,106.0,106.0,103.0,13.4,1505.2,348.6,-0.8,1.8,2471.573,13.29,0.012,225.0
2023-12-21T05:22:03,42.805,6.029,-0.031,0.003,-0.058,106.0,105.0,104.0,13.4,1505.2,349.6,-0.8,1.8,2471.517,13.29,0.031,275.5
2023-12-21T05:25:03,42.805,6.029,-0.026,-0.003,-0.023,106.0,105.0,104.0,13.3,1505.2,339.7,-0.8,1.8,2471.472,13.29,0.026,263.4
2023-12-21T05:28:03,42.805,6.029,-0.027,-0.012,-0.012,106.0,107.0,104.0,13.3,1505.2,346.3,-0.8,1.8,2471.477,13.29,0.029,246.0
2023-12-21T05:31:03,42.805,6.029,-0.027,-0.013,-0.01,106.0,105.0,104.0,13.4,1505.2,0.8,-0.7,1.8,2471.46,13.29,0.029,244.3
2023-12-21T05:34:03,42.805,6.029,0.009,0.008,-0.021,106.0,105.0,103.0,13.3,1505.2,340.0,-0.7,1.8,2471.459,13.29,0.012,48.4
2023-12-21T05:37:03,42.805,6.029,-0.013,-0.034,-0.013,107.0,106.0,104.0,13.4,1505.2,350.0,-0.8,1.8,2471.468,13.29,0.036,200.9
2023-12-21T05:40:03,42.805,6.029,-0.01,-0.016,-0.016,107.0,107.0,104.0,13.4,1505.2,0.8,-0.7,1.8,2471.447,13.29,0.018,212.0
2023-12-21T05:43:03,42.805,6.029,-0.031,-0.032,-0.038,106.0,106.0,104.0,13.4,1505.2,356.4,-0.8,1.8,2471.408,13.29,0.044,224.1
2023-12-21T05:46:03,42.805,6.029,-0.016,-0.007,-0.015,106.0,106.0,102.0,13.4,1505.2,343.1,-0.8,1.8,2471.409,13.29,0.017,246.4
2023-12-21T05:49:03,42.805,6.029,-0.018,-0.002,-0.035,107.0,106.0,103.0,13.4,1505.2,352.8,-0.8,1.8,2471.425,13.29,0.018,263.7
2023-12-21T05:52:02,42.805,6.029,-0.026,-0.02,-0.041,106.0,106.0,105.0,13.4,1505.2,348.6,-0.8,1.8,2471.453,13.29,0.032,232.4
2023-12-21T05:55:03,42.805,6.029,-0.01,-0.014,-0.023,106.0,106.0,103.0,13.3,1505.2,356.4,-0.8,1.8,2471.421,13.29,0.017,215.5
2023-12-21T05:58:03,42.805,6.029,-0.034,-0.008,-0.04,107.0,106.0,103.0,13.4,1505.2,344.7,-0.8,1.8,2471.381,13.29,0.034,256.8
2023-12-21T06:04:03,42.805,6.029,-0.026,0.003,-0.034,107.0,106.0,104.0,13.4,1505.2,1.7,-0.8,1.8,2471.421,13.29,0.026,276.6
2023-12-21T06:07:03,42.805,6.029,-0.012,-0.031,-0.035,108.0,106.0,103.0,13.3,1505.2,338.3,-0.8,1.8,2471.419,13.29,0.033,201.2
2023-12-21T06:10:03,42.805,6.029,-0.033,0.016,-0.019,106.0,106.0,103.0,13.4,1505.2,353.2,-0.8,1.8,2471.439,13.29,0.036,295.9
2023-12-21T06:13:03,42.805,6.029,-0.021,-0.017,-0.049,106.0,105.0,104.0,13.3,1505.2,349.4,-0.7,1.8,2471.425,13.29,0.027,231.0
2023-12-21T06:16:03,42.805,6.029,-0.027,0.015,-0.026,106.0,105.0,103.0,13.4,1505.2,1.7,-0.8,1.8,2471.432,13.29,0.03,299.1
2023-12-21T06:19:03,42.805,6.029,-0.037,-0.017,-0.037,106.0,107.0,104.0,13.4,1505.2,339.4,-0.7,1.8,2471.391,13.29,0.04,245.3
2023-12-21T06:22:03,42.805,6.029,-0.044,-0.002,-0.029,106.0,105.0,104.0,13.4,1505.2,349.4,-0.8,1.8,2471.422,13.29,0.044,267.4
2023-12-21T06:25:03,42.805,6.029,-0.028,0.015,-0.008,107.0,106.0,103.0,13.4,1505.2,357.0,-0.8,1.9,2471.382,13.29,0.031,298.2
2023-12-21T06:28:03,42.805,6.029,-0.027,-0.018,-0.042,107.0,107.0,104.0,13.4,1505.2,355.3,-0.8,1.8,2471.41,13.29,0.032,236.3
2023-12-21T06:31:03,42.805,6.029,-0.013,0.01,-0.011,106.0,107.0,103.0,13.4,1505.2,359.1,-0.7,1.8,2471.399,13.29,0.016,307.6
2023-12-21T06:34:03,42.805,6.029,-0.03,-0.015,-0.028,107.0,106.0,104.0,13.4,1505.2,352.6,-0.8,1.8,2471.386,13.29,0.033,243.4
2023-12-21T06:37:03,42.805,6.029,-0.02,-0.001,-0.025,107.0,107.0,104.0,13.4,1505.2,349.0,-0.8,1.8,2471.375,13.29,0.02,267.1
2023-12-21T06:40:03,42.805,6.029,-0.007,0.009,0.001,106.0,107.0,104.0,13.3,1505.2,349.7,-0.8,1.8,2471.38,13.29,0.011,322.1
2023-12-21T06:43:03,42.805,6.029,-0.032,-0.001,-0.007,106.0,107.0,105.0,13.4,1505.2,352.6,-0.7,1.8,2471.381,13.29,0.032,268.2
2023-12-21T06:46:03,42.805,6.029,-0.029,-0.01,-0.046,109.0,106.0,104.0,13.4,1505.2,355.6,-0.8,1.8,2471.403,13.29,0.03,251.0
2023-12-21T06:49:03,42.805,6.029,-0.022,0.005,-0.026,107.0,106.0,104.0,13.4,1505.2,344.9,-0.8,1.8,2471.374,13.29,0.022,282.8
2023-12-21T06:52:03,42.805,6.029,-0.031,0.006,-0.024,106.0,106.0,104.0,13.4,1505.2,0.0,-0.7,1.8,2471.371,13.29,0.031,281.0
2023-12-21T06:55:03,42.805,6.029,-0.021,0.002,-0.008,106.0,106.0,105.0,13.4,1505.2,341.0,-0.7,1.8,2471.347,13.29,0.021,275.4
2023-12-21T06:58:03,42.805,6.029,-0.027,0.021,-0.015,107.0,106.0,104.0,13.4,1505.2,349.3,-0.8,1.8,2471.455,13.29,0.034,307.9
2023-12-21T07:04:02,42.805,6.029,-0.017,0.011,-0.029,106.0,107.0,104.0,13.4,1505.2,352.0,-0.8,1.8,2471.445,13.29,0.02,302.9
2023-12-21T07:07:03,42.805,6.029,-0.008,0.007,-0.023,107.0,107.0,102.0,13.3,1505.2,340.0,-0.8,1.8,2471.408,13.29,0.01,311.2
2023-12-21T07:10:03,42.805,6.029,-0.025,0.025,0.003,106.0,107.0,104.0,13.4,1505.2,358.3,-0.7,1.8,2471.414,13.29,0.035,315.0
2023-12-21T07:13:03,42.805,6.029,-0.032,0.004,-0.04,107.0,106.0,104.0,13.3,1505.2,347.1,-0.8,1.8,2471.434,13.29,0.032,277.1
2023-12-21T07:16:03,42.805,6.029,-0.039,0.006,-0.025,107.0,107.0,104.0,13.3,1505.2,357.4,-0.8,1.8,2471.393,13.29,0.039,278.7
2023-12-21T07:19:03,42.805,6.029,-0.027,0.012,-0.029,107.0,106.0,104.0,13.4,1505.2,339.6,-0.7,1.8,2471.385,13.29,0.029,294.0
2023-12-21T07:22:03,42.805,6.029,-0.019,0.028,0.002,106.0,106.0,103.0,13.3,1505.2,358.4,-0.8,1.8,2471.391,13.29,0.033,325.8
2023-12-21T07:25:03,42.805,6.029,-0.019,-0.008,-0.026,107.0,105.0,104.0,13.4,1505.2,349.9,-0.8,1.8,2471.361,13.29,0.02,247.2
2023-12-21T07:28:03,42.805,6.029,-0.016,0.01,-0.009,106.0,106.0,103.0,13.4,1505.2,346.6,-0.8,1.8,2471.398,13.29,0.018,302.0
2023-12-21T07:31:03,42.805,6.029,-0.016,0.024,-0.02,107.0,105.0,104.0,13.3,1505.2,356.8,-0.8,1.8,2471.37,13.29,0.028,326.3
2023-12-21T07:34:03,42.805,6.029,-0.031,0.03,-0.036,107.0,107.0,104.0,13.3,1505.2,1.6,-0.8,1.8,2471.396,13.29,0.043,314.1
2023-12-21T07:37:03,42.805,6.029,-0.034,0.018,-0.013,106.0,107.0,105.0,13.3,1505.2,342.7,-0.8,1.8,2471.408,13.29,0.038,297.9
2023-12-21T07:40:03,42.805,6.029,-0.04,0.03,-0.042,107.0,104.0,104.0,13.4,1505.2,357.5,-0.8,1.8,2471.353,13.29,0.05,306.9
2023-12-21T07:43:03,42.805,6.029,-0.027,0.017,-0.023,106.0,106.0,102.0,13.4,1505.2,0.7,-0.8,1.8,2471.38,13.29,0.031,302.2
2023-12-21T07:46:03,42.805,6.029,-0.032,0.033,-0.034,105.0,107.0,103.0,13.3,1505.2,345.9,-0.8,1.8,2471.397,13.29,0.045,315.9
2023-12-21T07:49:03,42.805,6.029,-0.009,0.02,-0.02,107.0,105.0,102.0,13.4,1505.2,349.5,-0.8,1.8,2471.341,13.29,0.021,335.8
2023-12-21T07:52:03,42.805,6.029,-0.029,0.016,-0.006,106.0,106.0,103.0,13.3,1505.2,347.1,-0.8,1.8,2471.411,13.29,0.033,298.9
2023-12-21T07:55:03,42.805,6.029,-0.016,0.002,-0.02,107.0,105.0,103.0,13.4,1505.2,341.0,-0.8,1.8,2471.414,13.29,0.016,277.1
2023-12-21T07:58:03,42.805,6.029,-0.018,0.029,-0.043,106.0,106.0,103.0,13.4,1505.2,348.9,-0.8,1.9,2471.37,13.29,0.034,328.2
2023-12-21T08:04:03,42.805,6.029,-0.013,0.003,-0.026,106.0,107.0,104.0,13.4,1505.2,358.2,-0.8,1.8,2471.421,13.29,0.013,283.0
2023-12-21T08:07:03,42.805,6.029,-0.017,0.012,-0.015,106.0,106.0,103.0,13.3,1505.2,351.9,-0.8,1.8,2471.406,13.29,0.02,305.2
2023-12-21T08:10:03,42.805,6.029,-0.011,0.015,-0.04,108.0,105.0,103.0,13.4,1505.2,350.1,-0.8,1.8,2471.43,13.29,0.018,323.7
2023-12-21T08:13:03,42.805,6.029,-0.023,0.022,0.0,106.0,106.0,103.0,13.4,1505.2,349.1,-0.7,1.8,2471.42,13.29,0.031,313.7
2023-12-21T08:16:03,42.805,6.029,-0.009,0.03,-0.037,105.0,105.0,104.0,13.3,1505.2,352.2,-0.8,1.8,2471.409,13.29,0.031,343.3
2023-12-21T08:19:03,42.805,6.029,0.002,0.012,-0.028,106.0,105.0,104.0,13.4,1505.2,0.0,-0.8,1.9,2471.386,13.29,0.012,9.5
2023-12-21T08:22:03,42.805,6.029,-0.026,0.006,-0.007,104.0,105.0,104.0,13.3,1505.2,341.8,-0.8,1.8,2471.389,13.29,0.026,283.0
2023-12-21T08:25:03,42.805,6.029,-0.028,-0.002,-0.006,106.0,106.0,104.0,13.4,1505.2,346.8,-0.8,1.8,2471.383,13.29,0.028,265.9
2023-12-21T08:28:03,42.805,6.029,-0.004,0.021,-0.028,106.0,107.0,103.0,13.3,1505.2,3.8,-0.8,1.8,2471.383,13.29,0.021,349.2
2023-12-21T08:31:03,42.805,6.029,-0.04,0.012,-0.035,106.0,104.0,104.0,13.4,1505.2,353.1,-0.7,1.8,2471.373,13.29,0.041,286.7
2023-12-21T08:34:03,42.805,6.029,-0.018,0.017,-0.009,105.0,106.0,103.0,13.3,1505.2,351.3,-0.8,1.8,2471.423,13.29,0.024,313.4
2023-12-21T08:37:03,42.805,6.029,0.0,0.021,-0.021,105.0,106.0,103.0,13.4,1505.2,346.9,-0.8,1.8,2471.371,13.29,0.021,0.0
2023-12-21T08:40:03,42.805,6.029,-0.021,0.012,-0.013,106.0,105.0,103.0,13.4,1505.2,354.5,-0.8,1.8,2471.344,13.29,0.024,299.7
2023-12-21T08:43:03,42.805,6.029,-0.017,-0.006,-0.015,106.0,105.0,103.0,13.4,1505.2,347.9,-0.8,1.8,2471.364,13.29,0.018,250.6
2023-12-21T08:46:03,42.805,6.029,-0.027,0.002,-0.046,105.0,106.0,104.0,13.3,1505.2,349.6,-0.8,1.8,2471.422,13.29,0.027,274.2
2023-12-21T08:49:03,42.805,6.029,-0.022,0.017,0.01,106.0,105.0,103.0,13.3,1505.2,340.8,-0.8,1.8,2471.309,13.29,0.027,307.7
2023-12-21T08:52:03,42.805,6.029,-0.026,0.02,-0.022,106.0,106.0,103.0,13.4,1505.2,347.4,-0.8,1.8,2471.398,13.29,0.032,307.6
2023-12-21T08:55:03,42.805,6.029,-0.029,0.02,-0.033,105.0,105.0,102.0,13.4,1505.2,2.4,-0.7,1.8,2471.384,13.29,0.035,304.6
2023-12-21T08:58:03,42.805,6.029,0.0,0.031,-0.052,106.0,106.0,104.0,13.4,1505.2,348.8,-0.7,1.8,2471.386,13.29,0.03,0.0
2023-12-21T09:04:03,42.805,6.029,-0.028,0.006,-0.022,106.0,106.0,103.0,13.4,1505.2,355.3,-0.8,1.8,2471.439,13.29,0.028,282.1
2023-12-21T09:07:03,42.805,6.029,-0.005,0.004,-0.036,106.0,106.0,103.0,13.4,1505.2,345.1,-0.7,1.8,2471.436,13.29,0.006,308.7
2023-12-21T09:10:03,42.805,6.029,-0.009,0.029,-0.009,107.0,104.0,103.0,13.4,1505.2,2.4,-0.7,1.8,2471.455,13.29,0.03,342.8
2023-12-21T09:13:03,42.805,6.029,-0.014,0.009,-0.035,105.0,105.0,103.0,13.4,1505.2,340.6,-0.8,1.8,2471.416,13.29,0.016,302.7
2023-12-21T09:16:03,42.805,6.029,-0.005,0.014,-0.028,105.0,105.0,102.0,13.3,1505.2,356.4,-0.7,1.8,2471.417,13.29,0.014,340.4
2023-12-21T09:19:03,42.805,6.029,0.003,0.011,-0.023,105.0,105.0,103.0,13.4,1505.2,347.2,-0.8,1.8,2471.421,13.29,0.011,15.3
2023-12-21T09:22:03,42.805,6.029,-0.016,0.006,-0.012,104.0,105.0,103.0,13.4,1505.2,3.3,-0.7,1.8,2471.35,13.29,0.017,290.6
2023-12-21T09:25:03,42.805,6.029,-0.011,0.015,-0.018,105.0,106.0,103.0,13.3,1505.2,346.1,-0.8,1.9,2471.362,13.29,0.018,323.7
2023-12-21T09:28:03,42.805,6.029,0.0,0.015,-0.003,106.0,104.0,102.0,13.4,1505.2,353.5,-0.7,1.8,2471.401,13.29,0.015,0.0
2023-12-21T09:31:03,42.805,6.029,-0.018,0.006,-0.02,107.0,106.0,103.0,13.4,1505.2,348.8,-0.8,1.8,2471.392,13.29,0.018,288.4
2023-12-21T09:34:03,42.805,6.029,-0.024,0.011,-0.026,106.0,106.0,101.0,13.4,1505.2,3.0,-0.7,1.9,2471.407,13.29,0.026,294.6
2023-12-21T09:37:03,42.805,6.029,-0.02,0.025,-0.024,106.0,106.0,103.0,13.3,1505.2,352.6,-0.8,1.8,2471.359,13.29,0.032,321.3
2023-12-21T09:40:03,42.805,6.029,-0.021,0.022,-0.016,106.0,105.0,103.0,13.4,1505.2,344.2,-0.8,1.8,2471.393,13.29,0.03,316.3
2023-12-21T09:43:03,42.805,6.029,-0.003,0.0,-0.03,105.0,106.0,103.0,13.4,1505.2,351.3,-0.8,1.8,2471.412,13.29,0.003,270.0
2023-12-21T09:46:03,42.805,6.029,-0.015,-0.004,-0.027,106.0,106.0,104.0,13.4,1505.2,3.3,-0.8,1.8,2471.428,13.29,0.015,255.1
2023-12-21T09:49:03,42.805,6.029,-0.028,0.01,-0.022,106.0,106.0,103.0,13.4,1505.2,347.0,-0.8,1.9,2471.418,13.29,0.029,289.6
2023-12-21T09:52:03,42.805,6.029,0.006,0.0,-0.023,106.0,105.0,104.0,13.4,1505.2,347.6,-0.7,1.8,2471.398,13.29,0.006,90.0
2023-12-21T09:55:03,42.805,6.029,-0.008,0.017,-0.009,106.0,105.0,103.0,13.3,1505.2,352.9,-0.8,1.8,2471.433,13.29,0.018,334.8
2023-12-21T09:58:03,42.805,6.029,-0.027,0.007,0.0,106.0,107.0,105.0,13.4,1505.2,0.0,-0.8,1.8,2471.407,13.29,0.027,284.5
2023-12-21T10:04:03,42.805,6.029,-0.035,0.012,-0.019,106.0,106.0,102.0,13.4,1505.2,341.3,-0.8,1.8,2471.442,13.29,0.037,288.9
2023-12-21T10:07:03,42.805,6.029,-0.038,0.019,-0.052,105.0,106.0,103.0,13.3,1505.2,357.5,-0.8,1.8,2471.447,13.29,0.042,296.6
2023-12-21T10:10:03,42.805,6.029,0.003,0.014,-0.019,107.0,106.0,104.0,13.4,1505.2,347.3,-0.8,1.8,2471.447,13.29,0.014,12.1
2023-12-21T10:13:03,42.805,6.029,-0.015,0.009,-0.006,106.0,105.0,104.0,13.4,1505.2,344.5,-0.8,1.8,2471.447,13.29,0.017,301.0
2023-12-21T10:16:03,42.805,6.029,0.001,0.034,-0.004,106.0,106.0,102.0,13.4,1505.2,357.5,-0.8,1.8,2471.405,13.29,0.034,1.7
2023-12-21T10:19:03,42.805,6.029,-0.004,0.009,-0.032,106.0,109.0,105.0,13.3,1505.2,3.0,-0.7,1.8,2471.434,13.29,0.009,336.0
2023-12-21T10:22:03,42.805,6.029,0.001,0.015,-0.041,106.0,106.0,104.0,13.4,1505.2,338.9,-0.8,1.8,2471.443,13.29,0.015,3.8
2023-12-21T10:25:03,42.805,6.029,-0.02,0.031,-0.021,107.0,106.0,103.0,13.4,1505.2,351.6,-0.8,1.8,2471.424,13.29,0.036,327.2
2023-12-21T10:28:03,42.805,6.029,-0.014,0.022,-0.037,106.0,105.0,103.0,13.3,1505.2,1.6,-0.8,1.8,2471.394,13.29,0.026,327.5
2023-12-21T10:31:03,42.805,6.029,-0.018,0.01,-0.026,105.0,105.0,104.0,13.4,1505.2,349.5,-0.8,1.8,2471.421,13.29,0.02,299.1
2023-12-21T10:34:03,42.805,6.029,-0.018,0.012,-0.04,106.0,105.0,103.0,13.3,1505.2,340.2,-0.8,1.8,2471.407,13.29,0.021,303.7
2023-12-21T10:37:03,42.805,6.029,-0.011,0.002,0.011,107.0,107.0,103.0,13.3,1505.2,346.7,-0.8,1.8,2471.442,13.29,0.011,280.3
2023-12-21T10:40:03,42.805,6.029,-0.003,0.023,-0.01,107.0,105.0,103.0,13.3,1505.2,0.8,-0.8,1.9,2471.448,13.29,0.023,352.6
2023-12-21T10:43:03,42.805,6.029,-0.001,0.01,0.003,106.0,105.0,103.0,13.4,1505.2,344.7,-0.8,1.8,2471.425,13.29,0.01,354.3
2023-12-21T10:46:03,42.805,6.029,-0.017,0.014,-0.03,105.0,108.0,104.0,13.4,1505.2,356.8,-0.8,1.8,2471.437,13.29,0.022,309.5
2023-12-21T10:49:03,42.805,6.029,-0.023,0.027,-0.028,106.0,105.0,103.0,13.3,1505.2,350.9,-0.8,1.8,2471.467,13.29,0.035,319.6
2023-12-21T10:52:03,42.805,6.029,0.003,0.002,-0.03,104.0,107.0,108.0,13.4,1505.2,4.0,-0.8,1.8,2471.434,13.29,0.003,56.3
2023-12-21T10:55:03,42.805,6.029,-0.017,0.007,0.0,106.0,105.0,103.0,13.4,1505.2,349.9,-0.8,1.8,2471.43,13.29,0.018,292.4